STARLINK-36785, 67853

Orbit data source: Space-Track

STARLINK-36785, 67853 is a payload satellite owned by SpaceX/Seattle (US) in LEO that was launched on Fri, 20 Feb 2026 UTC via an FALCON 9 launch vehicle from the Air Force Eastern Test Range (AFETR). Payload-class satellites include a variety of spacecraft equipped with specific instruments for various scientific and technological missions. These include communications satellites like Starlink; space stations such as the ISS; scientific satellites like the Hubble; Earth observation satellites from companies like Planet Labs, Umbra, and HawkEye 360; GPS; miniature CubeSats for education and research; and military/defense satellites.

Loading next visibility...
Identifier
67853, 2026-034D
Orbit
LEO
Country
Flag of USUS
Related business
Manufacturer
SpaceX/Seattle
Mission
Operational Commercial Communications
Bus & Motor
STARLINK V2MO, Unknown motor
Mass
575 kg wet, ~530 kg dry
Launch date (UTC)
2026-02-20 (4 months ago)
Launch vehicle
FALCON 9
Launch site
Air Force Eastern Test Range (AFETR)
Object type
Payload
Rocket body
Debris
Shape & HBR
Box + 2 Pan, 17.7 m
Radar Cross Section
36.964 m², Large (>1 m²)

Expand to show TLE details & history
Last TLE update: 17 hours ago

TLE from 17 hours ago
0 STARLINK-36785
1 67853U 26034D   26171.15417307  .00020122  00000-0  68911-3 0  9994
2 67853  53.1611  88.2936 0001211  90.7936 269.3204 15.30226511 19724
Epoch: 2026-06-20T03:42Z
TLE epoch observation values (Epoch: 2026-06-20T03:42:00.553Z)
Latitude
0.00003°
Longitude
124.41844°
Altitude
476.046 km
Speed
7.629 km/s
True Right ascension
05h 53m 10s
True Declination
0° 00' 00"
Sunlit
Object was in daylight at epoch
Visualization orbit readout
Latitude
Unknown
Longitude
Unknown
Altitude
Unknown
Speed
Unknown
Apparent Right ascension
Unknown
Apparent Declination
Unknown
Sunlit
N/A
Visualization observer readout
Local Sidereal Time
07:16:15
Azimuth
Unknown
Elevation
Unknown
Doppler factor
Unknown
Orbital elements
Apogee altitude
476.222 km
Perigee altitude
474.562 km
Semi-major axis
6,853.529 km
Eccentricity
0.00012
Inclination
53.1611°
RAAN
88.2936°
Arg. of periapsis
90.7936°
True anomaly
269.30652°
Mean anomaly
269.3204°
Eccentric anomaly
269.31346°
Mean motion
3.82536 °/min
Orbital period
94.11 mins
BSTAR
0.00068911
Loading maneuver chart data...
Computing Atmospheric mass density...
Loading historical data...
Loading historical data...
Loading historical data...
Loading historical data...
Loading historical data...
Loading historical data...
Loading historical data...

Documentation

Showing up to 5 results
|